Location: Quedlinburg
(51.7921°N, 11.1414°E)
Time: 08:17:34
(UTC+02:00)

RS-44 - Pass Details

Date: 19 March 2026
Orbit: 1175 x 1510 km, 82.5° (Epoch: 13 April)

Event Time Altitude Azimuth Distance (km) Brightness Sun altitude
Rises 03:50:02 0° 345° (NNW) 4,425 ? -23.1°
Reaches altitude 10° 03:53:06 10° 336° (NNW) 3,494 ? -22.6°
Maximum altitude 04:00:14 33° 278° (W) 2,271 ? -21.7°
Enters shadow 04:01:42 31° 260° (W) 2,349 ? -21.5°
